Liverpool, United Kingdom

2:06 PM BST on June 25, 2018 (GMT +0100)
Liverpool

Weather History for EGGP - September, 2017

Change the Weather History Date:

Thursday, September 14, 2017

  Actual Average Record
Temperature  
Mean Temperature 54 °F -  
Max Temperature 59 °F 59 °F 78 °F (2016)
Min Temperature 48 °F 48 °F 41 °F (1996)
Degree Days  
Heating Degree Days 12    
Growing Degree Days 4 (Base 50)    
Moisture  
Dew Point 49 °F    
Average Humidity 83    
Maximum Humidity 94    
Minimum Humidity 63    
Precipitation  
Precipitation 0.00 in - - ()
Sea Level Pressure  
Sea Level Pressure 29.75 in    
Wind  
Wind Speed 12 mph ()    
Max Wind Speed 25 mph    
Max Gust Speed 40 mph    
Visibility 6.2 miles    
Events Rain    
Averages and records for this station are not official NWS values.
T = Trace of Precipitation, MM = Missing Value Source: Averaged Metar Reports

Daily Weather History Graph

Daily Weather History Graph

Search for Another Location

Airport or City:

Astronomy

Sep. 14, 2017 Rise Set
Actual Time 6:43 AM BST 7:29 PM BST
Civil Twilight 6:08 AM BST 8:04 PM BST
Nautical Twilight 5:25 AM BST 8:46 PM BST
Astronomical Twilight 4:40 AM BST 9:31 PM BST
Moon No Moon Rise 4:10 PM BST (9/14)
Length of Visible Light 13h 56m
Length of Day
12h 45m
Last Quarter, 37% of the Moon is Illuminated
Sep 14
Last Quarter
Sep 20
New
Sep 28
First Quarter
Oct 5
Full
Oct 12
Last Quarter

Hourly Weather History & Observations

Time (BST) Temp. Dew Point Humidity Pressure Visibility Wind Dir Wind Speed Gust Speed Precip Events Conditions
12:20 AM 48.2 °F 46.4 °F 93% 29.53 in 6.2 mi West 9.2 mph - N/A   Scattered Clouds
12:50 AM 50.0 °F 48.2 °F 94% 29.53 in 6.2 mi WSW 9.2 mph - N/A   Scattered Clouds
1:20 AM 50.0 °F 48.2 °F 94% 29.53 in 6.2 mi WSW 12.7 mph - N/A   Scattered Clouds
1:50 AM 50.0 °F 48.2 °F 94% 29.53 in 6.2 mi West 12.7 mph - N/A   Scattered Clouds
2:20 AM 51.8 °F 50.0 °F 94% 29.53 in 6.2 mi West 9.2 mph - N/A   Scattered Clouds
2:50 AM 51.8 °F 50.0 °F 94% 29.56 in 6.2 mi WNW 12.7 mph - N/A Rain Rain
3:20 AM 53.6 °F 50.0 °F 88% 29.56 in 6.2 mi WNW 11.5 mph - N/A   Scattered Clouds
3:50 AM 51.8 °F 50.0 °F 94% 29.56 in 6.2 mi NW 10.4 mph - N/A   Scattered Clouds
4:20 AM 53.6 °F 50.0 °F 88% 29.56 in 6.2 mi NW 11.5 mph - N/A Rain Rain
4:50 AM 53.6 °F 51.8 °F 94% 29.56 in 6.2 mi WNW 13.8 mph - N/A Rain Rain
5:20 AM 51.8 °F 50.0 °F 94% 29.59 in 6.2 mi NW 12.7 mph - N/A Rain Rain
5:50 AM 51.8 °F 50.0 °F 94% 29.59 in 6.2 mi NW 11.5 mph - N/A Rain Rain
6:20 AM 51.8 °F 50.0 °F 94% 29.62 in 6.2 mi NW 8.1 mph - N/A   Scattered Clouds
6:50 AM 51.8 °F 50.0 °F 94% 29.62 in 6.2 mi NW 6.9 mph - N/A Rain Rain Showers
7:20 AM 51.8 °F 50.0 °F 94% 29.65 in 6.2 mi NNW 13.8 mph - N/A   Scattered Clouds
7:50 AM 53.6 °F 50.0 °F 88% 29.65 in 6.2 mi North 10.4 mph - N/A Rain Rain Showers
8:20 AM 53.6 °F 50.0 °F 88% 29.68 in 6.2 mi NW 9.2 mph - N/A   Scattered Clouds
8:50 AM 55.4 °F 50.0 °F 82% 29.68 in 6.2 mi NW 8.1 mph - N/A   Scattered Clouds
9:20 AM 57.2 °F 51.8 °F 82% 29.71 in 6.2 mi NW 11.5 mph - N/A   Partly Cloudy
9:50 AM 55.4 °F 50.0 °F 82% 29.74 in 6.2 mi NNW 13.8 mph - N/A   Scattered Clouds
10:20 AM 59.0 °F 50.0 °F 72% 29.74 in 6.2 mi NNW 15.0 mph - N/A   Scattered Clouds
10:50 AM 59.0 °F 50.0 °F 72% 29.77 in 6.2 mi NNW 18.4 mph - N/A   Scattered Clouds
11:20 AM 57.2 °F 51.8 °F 82% 29.77 in 6.2 mi WNW 17.3 mph - N/A Rain Light Rain Showers
11:50 AM 55.4 °F 50.0 °F 82% 29.80 in 6.2 mi WNW 12.7 mph - N/A Rain Light Rain Showers
12:20 PM 59.0 °F 50.0 °F 72% 29.80 in 6.2 mi NW 20.7 mph - N/A   Scattered Clouds
12:50 PM 59.0 °F 50.0 °F 72% 29.83 in 6.2 mi NW 19.6 mph 31.1 mph N/A   Scattered Clouds
1:20 PM 57.2 °F 48.2 °F 72% 29.83 in 6.2 mi NW 20.7 mph 32.2 mph N/A   Scattered Clouds
1:50 PM 57.2 °F 46.4 °F 67% 29.83 in 6.2 mi NW 20.7 mph 33.4 mph N/A   Scattered Clouds
2:20 PM 59.0 °F 46.4 °F 63% 29.86 in 6.2 mi WNW 21.9 mph 33.4 mph N/A   Mostly Cloudy
2:50 PM 55.4 °F 50.0 °F 82% 29.86 in 6.2 mi WNW 23.0 mph 39.1 mph N/A Rain Rain Showers
3:20 PM 57.2 °F 48.2 °F 72% 29.86 in 6.2 mi NW 18.4 mph - N/A   Mostly Cloudy
3:50 PM 57.2 °F 51.8 °F 82% 29.86 in 6.2 mi WNW 24.2 mph 35.7 mph N/A   Mostly Cloudy
4:20 PM 57.2 °F 50.0 °F 77% 29.86 in 6.2 mi WNW 25.3 mph 40.3 mph N/A Rain Light Rain Showers
4:50 PM 57.2 °F 48.2 °F 72% 29.86 in 6.2 mi NW 18.4 mph - N/A   Scattered Clouds
5:20 PM 55.4 °F 44.6 °F 67% 29.89 in 6.2 mi NW 20.7 mph - N/A   Scattered Clouds
5:50 PM 57.2 °F 46.4 °F 67% 29.89 in 6.2 mi WNW 17.3 mph - N/A   Scattered Clouds
6:20 PM 55.4 °F 48.2 °F 77% 29.89 in 6.2 mi NW 13.8 mph - N/A   Scattered Clouds
6:50 PM 55.4 °F 46.4 °F 72% 29.89 in 6.2 mi NW 13.8 mph - N/A   Scattered Clouds
7:20 PM 55.4 °F 46.4 °F 72% 29.89 in 6.2 mi WNW 18.4 mph - N/A   Scattered Clouds
7:50 PM 53.6 °F 48.2 °F 82% 29.89 in 6.2 mi WNW 15.0 mph - N/A   Scattered Clouds
8:20 PM 53.6 °F 48.2 °F 82% 29.92 in 6.2 mi WNW 15.0 mph - N/A Rain Light Rain Showers
8:50 PM 51.8 °F 48.2 °F 88% 29.92 in 6.2 mi WNW 15.0 mph - N/A Rain Light Rain Showers
9:20 PM 51.8 °F 48.2 °F 88% 29.92 in 6.2 mi WNW 13.8 mph - N/A   Scattered Clouds
9:50 PM 53.6 °F 48.2 °F 82% 29.89 in 6.2 mi WNW 12.7 mph - N/A   Scattered Clouds
10:20 PM 53.6 °F 48.2 °F 82% 29.89 in 6.2 mi WNW 11.5 mph - N/A   Mostly Cloudy
10:50 PM 53.6 °F 48.2 °F 82% 29.92 in 6.2 mi WNW 12.7 mph - N/A   Scattered Clouds
11:20 PM 53.6 °F 48.2 °F 82% 29.92 in 6.2 mi WNW 12.7 mph - N/A   Scattered Clouds
11:50 PM 53.6 °F 48.2 °F 82% 29.92 in 6.2 mi WNW 13.8 mph - N/A   Scattered Clouds